User: anonymous   Login
Location: Unspecified
(0.0000°N, 0.0000°E)
Time: 08:38:07
(UTC+02:00)
Language:

ARIANE 44L R/B - Orbit

View from above orbital plane
View from above orbital plane
View from above satellite
View from above satellite

Ground track
Ground track

The orbit data is extracted from the following two-line orbital elements,

1 26901U 01039B   17207.65365362 +.00007844 +00000-0 +14249-2 0  9999
2 26901 007.2860 101.9887 6888976 040.2608 354.1930 02.79578447144714
Epoch (UTC): 26 July 2017 15:41:15
Eccentricity: 0.6888976
inclination: 7.2860°
perigee height: 243 km
apogee height: 29569 km
right ascension of ascending node: 101.9887°
argument of perigee: 40.2608°
revolutions per day: 2.79578447
mean anomaly at epoch: 354.1930°
orbit number at epoch: 14471

The dashed part of the orbit path shows where the satellite is in the earth's shadow,  

DLR